Location: Unspecified
(0.0000°N, 0.0000°E)
Time: 16:04:05
(UTC+00:00)

deb NNS O-7 - Visible Passes

Search period start: 15 June 2025 00:00
Search period end: 25 June 2025 00:00
Orbit: 819 x 1078 km, 90.2° (Epoch: 14 June)

Date Brightness Start Highest point End Pass type
(mag) Time Alt. Az. Time Alt. Az. Time Alt. Az.
15 Jun ? 04:27:02 10° SSE 04:32:29 57° E 04:37:43 10° N visible
16 Jun ? 04:44:07 10° S 04:49:39 80° W 04:55:01 10° N visible
17 Jun ? 05:01:36 10° SSW 05:06:49 44° W 05:11:54 10° NNW visible
18 Jun ? 03:36:42 10° SE 03:40:24 19° E 03:44:03 10° NE visible
18 Jun ? 05:19:34 10° SSW 05:23:58 25° W 05:28:18 10° NW visible
19 Jun ? 03:52:44 10° SSE 03:57:35 33° E 04:02:21 10° NNE visible
19 Jun ? 05:38:27 10° SW 05:41:06 14° W 05:43:45 10° WNW visible
20 Jun ? 04:09:24 10° SSE 04:14:46 60° E 04:20:01 10° N visible
21 Jun ? 04:27:30 16° S 04:31:56 77° W 04:37:17 10° N visible
22 Jun ? 03:05:09 10° E 03:05:31 10° E 03:05:54 10° E visible
22 Jun ? 04:45:39 19° SSW 04:49:05 42° W 04:54:07 10° NNW visible
23 Jun ? 03:19:35 12° SE 03:22:42 19° E 03:26:26 10° NE visible
23 Jun ? 05:03:43 17° SW 05:06:15 24° W 05:10:29 10° NW visible
24 Jun ? 03:37:35 24° SE 03:39:51 34° E 03:44:41 10° NNE visible
24 Jun ? 05:21:44 11° WSW 05:23:24 13° W 05:25:47 10° WNW visible
